Location: Bern�tre
(50.1974°N, 2.0915°E)
Time: 02:28:52
(UTC+00:00)

ATLAS 2AS CENTAUR R/B - Pass Details

Date: 18 September 2020
Orbit: 939 x 1273 km, 63.7° (Epoch: 19 October)

Event Time Altitude Azimuth Distance (km) Brightness Sun altitude
Exits shadow 22:59:05 25° 264° (W) 2,344 4.5 -37.5°
Maximum altitude 23:03:43 50° 327° (NNW) 1,578 3.7 -37.6°
Drops below altitude 10° 23:11:14 10° 42° (NE) 3,184 5.5 -37.9°
Sets 23:14:04 0° 48° (NE) 4,113 6.1 -38.0°
